Starlink 32421

operational
NORAD ID: 61628 Int'l Des: 2024-191 Owner: SPXS Country: US Constellation: starlink
LEOCIRCULAR

Über Starlink 32421

Beschreibung wird geladen...

Live-Position

3D-Globus wird geladen...

Nächste Überflüge

Höhenverlauf

Altitude vs Time

uPlot chart will show altitude changes over time

Zweizeiliger Elementsatz

1 61628U 24191H 25350.18165957 .00003458 00000-0 13515-3 0 9995
2 61628 43.0007 266.2295 0001422 279.1706 80.8985 15.27573185 64767
Epoch: 16. Dez. 2025 • Age: 25 hours

Aktueller Status

Höhe 491.6 km
Geschwindigkeit 7.62 km/s
Subsatellitenpunkt -33.67°S, 50.52°E
Startdatum 23. Okt. 2024
Alter 1.1 years
Typ internet

Technische Details

Klassifizierung Payload
Masse 730.00 kg
Trockenmasse 700.00 kg
Gesamtmasse 730.00 kg
Länge 0.30 m
Durchmesser 4.10 m
Spannweite 29.00 m
Form Box + pan
Hersteller SPXS
Bus-Typ Starlink V2M
Phasenstatus In Orbit
Besitzer/Staat SPXS/US

Große Konstellationen

Loading constellations...